Regional Weather Roundup
Issued by NWS

Home | Current Version | Previous Version | Text Only | Print | Product List | Glossary Off
Versions: 1 2 3 4 5 6 7 8 9 10 11 12 13 14 15 16 17 18 19 20 21 22 23 24 25 26 27 28 29 30 31 32 33 34 35 36 37 38 39 40 41 42 43 44 45 46 47 48 49 50

000
ASUS43 KFSD 271702
RWRSD

WEATHER ROUNDUP FOR SOUTH DAKOTA
NATIONAL WEATHER SERVICE SIOUX FALLS SD
1200 PM CDT SAT MAY 27 2017

NOTE: "FAIR" INDICATES FEW OR NO CLOUDS BELOW 12,000 FEET WITH NO
SIGNIFICANT WEATHER AND/OR OBSTRUCTIONS TO VISIBILITY.


SDZ001>005-009-010-012>017-271800-
NORTHWEST AND NORTH CENTRAL SOUTH DAKOTA

CITY           SKY/WX    TMP DP  RH WIND       PRES   REMARKS
BUFFALO          N/A     67  36  31 W22G28    29.93S
FAITH            N/A     69  36  29 NW15G25   29.96S
MOBRIDGE       SUNNY     72  37  28 NW10      29.89F
$$

SDZ012>016-024>037-041>051-057-063-072>074-271800-
SOUTHWEST AND SOUTH CENTRAL SOUTH DAKOTA

CITY           SKY/WX    TMP DP  RH WIND       PRES   REMARKS
RAPID CTY ARPT MOSUNNY   68  37  32 N16G25    30.02S
PIERRE         SUNNY     64  48  56 S8        29.95F
CUSTER         CLOUDY    54  31  41 VRB7      30.08S
ELLSWORTH AFB  MOSUNNY   65  37  34 NW18G25   30.02S
PHILIP         SUNNY     68  46  45 NW7       29.97F
PINE RIDGE     PTSUNNY   62  44  51 N10       30.04S
WINNER         CLOUDY    59  52  77 W6        30.00S
$$

SDZ004>011-016>023-039-040-271800-
NORTHEAST SOUTH DAKOTA

CITY           SKY/WX    TMP DP  RH WIND       PRES   REMARKS
ABERDEEN       CLOUDY    69  42  37 W23G29    29.90S
WATERTOWN      CLOUDY    67  40  37 W10       29.91S
BROOKINGS      CLOUDY    64  49  57 W7        29.94R
SISSETON         N/A     72  43  35 W14       29.86S
$$

SDZ017-020-022-023-036>040-048>070-271800-
SOUTHEAST SOUTH DAKOTA

CITY           SKY/WX    TMP DP  RH WIND       PRES   REMARKS
SIOUX FALLS    CLOUDY    63  55  75 SW6       29.96R
HURON          CLOUDY    70  43  37 NW14      29.92S
CHAMBERLAIN    CLOUDY    62  48  59 NW3       29.98S
MITCHELL       CLOUDY    66  49  54 NW5       29.96R
YANKTON        CLOUDY    58  53  84 NW5       29.98R
$$

ABBREVIATIONS USED IN REMARKS
   TC - TEMPERATURE IN CELSIUS
  WCI - WIND CHILL INDEX
   HX - HEAT INDEX
  VSB - VISIBILITY




USA.gov is the U.S. government's official web portal to all federal, state and local government web resources and services.